RS29S (SXC3-2110 CYCLO*)

Last updated on Wed Jul 12 2023 00:03:08 GMT+0000 (Coordinated Universal Time)

1 53373U 22096D 23192.44376812 .00029079 00000+0 71812-3 0 9990 2 53373 97.4109 99.0411 0003577 97.1423 263.0230 15.40457677 51429

Satellite not in orbit

RS29S (SXC3-2110 CYCLO*)